UAL2008 KORD-KMCO

Flight info

Callsign UAL2008
Flight time 2h 5m
Altitude 35000
Route DENNT DARCY DREGS DUMGE SCOTO SWAPP Q79 THRSR ZJAYX GRNCH5
Aircraft A321/M-SDE3FGHIRWY/LB1

Departure

Time 2026-04-24 08:13
Airport Chicago O'Hare International Airport (KORD)

Arrival

Time 2026-04-24 10:18
Airport Orlando International Airport (KMCO)
Time Latitude Longitude Altitude Speed Heading
2026-04-24 07:52 41.97351 -87.88903 671 ft 0 kts
2026-04-24 08:01 41.97350 -87.88903 689 ft 0 kts
2026-04-24 08:05 41.97330 -87.88905 669 ft 4 kts 10°
2026-04-24 08:05 41.97304 -87.88915 670 ft 4 kts 26°
2026-04-24 08:05 41.97283 -87.88934 667 ft 4 kts 49°
2026-04-24 08:05 41.97271 -87.88962 670 ft 2 kts 89°
2026-04-24 08:06 41.97271 -87.88964 670 ft 2 kts 89°
2026-04-24 08:07 41.97271 -87.88965 670 ft 0 kts 89°
2026-04-24 08:08 41.97271 -87.88947 669 ft 6 kts 91°
2026-04-24 08:09 41.97267 -87.88800 670 ft 7 kts 91°
2026-04-24 08:09 41.97267 -87.88742 670 ft 6 kts 89°
2026-04-24 08:09 41.97266 -87.88694 670 ft 6 kts 101°
2026-04-24 08:09 41.97205 -87.88642 670 ft 14 kts 125°
2026-04-24 08:10 41.97195 -87.88519 670 ft 13 kts 86°
2026-04-24 08:10 41.97197 -87.88398 670 ft 15 kts 91°
2026-04-24 08:10 41.97196 -87.88250 670 ft 16 kts 90°
2026-04-24 08:10 41.97197 -87.88110 670 ft 14 kts 91°
2026-04-24 08:11 41.97139 -87.88037 670 ft 12 kts 173°
2026-04-24 08:11 41.97051 -87.88032 670 ft 13 kts 180°
2026-04-24 08:11 41.96963 -87.88032 670 ft 12 kts 182°
2026-04-24 08:11 41.96922 -87.88058 668 ft 0 kts 224°
2026-04-24 08:12 41.96845 -87.88152 669 ft 46 kts 221°
2026-04-24 08:12 41.96430 -87.88642 669 ft 109 kts 221°
2026-04-24 08:12 41.95732 -87.89457 678 ft 154 kts 220°
2026-04-24 08:13 41.94899 -87.90411 1211 ft 156 kts 218°
2026-04-24 08:13 41.94067 -87.91321 1865 ft 153 kts 212°
2026-04-24 08:13 41.93047 -87.91641 2506 ft 159 kts 184°
2026-04-24 08:13 41.91947 -87.91213 3135 ft 165 kts 176°
2026-04-24 08:14 41.90860 -87.90782 3746 ft 162 kts 176°
2026-04-24 08:14 41.89790 -87.90386 4367 ft 157 kts 176°
2026-04-24 08:14 41.88751 -87.90002 4966 ft 153 kts 175°
2026-04-24 08:14 41.87740 -87.89627 5524 ft 152 kts 175°
2026-04-24 08:15 41.86717 -87.89252 6002 ft 153 kts 174°
2026-04-24 08:15 41.85657 -87.88865 6507 ft 165 kts 174°
2026-04-24 08:15 41.84495 -87.88445 7015 ft 181 kts 173°
2026-04-24 08:15 41.83248 -87.87989 7521 ft 196 kts 171°
2026-04-24 08:16 41.81891 -87.87485 8031 ft 209 kts 171°
2026-04-24 08:16 41.80450 -87.86944 8550 ft 220 kts 171°
2026-04-24 08:16 41.78937 -87.86376 9087 ft 232 kts 170°
2026-04-24 08:16 41.77316 -87.85770 9596 ft 251 kts 169°
2026-04-24 08:17 41.75568 -87.85119 10082 ft 270 kts 169°
2026-04-24 08:17 41.73695 -87.84417 10558 ft 289 kts 169°
2026-04-24 08:17 41.71703 -87.83665 11046 ft 307 kts 168°
2026-04-24 08:17 41.69589 -87.82865 11541 ft 324 kts 168°
2026-04-24 08:18 41.67394 -87.82032 12024 ft 340 kts 167°
2026-04-24 08:18 41.65088 -87.81156 12524 ft 341 kts 167°
2026-04-24 08:18 41.62826 -87.80293 13038 ft 337 kts 167°
2026-04-24 08:18 41.60569 -87.79438 13556 ft 338 kts 167°
2026-04-24 08:19 41.58294 -87.78583 14043 ft 341 kts 167°
2026-04-24 08:19 41.56006 -87.77728 14503 ft 343 kts 167°
2026-04-24 08:19 41.53701 -87.76867 14983 ft 345 kts 167°
2026-04-24 08:19 41.51374 -87.76000 15474 ft 349 kts 167°
2026-04-24 08:20 41.49028 -87.75127 15974 ft 351 kts 167°
2026-04-24 08:20 41.46666 -87.74249 16431 ft 354 kts 167°
2026-04-24 08:20 41.44289 -87.73364 16895 ft 356 kts 167°
2026-04-24 08:20 41.41900 -87.72675 17356 ft 357 kts 174°
2026-04-24 08:21 41.39420 -87.72478 17834 ft 358 kts 182°
2026-04-24 08:21 41.36923 -87.72509 18279 ft 360 kts 182°
2026-04-24 08:21 41.34406 -87.72531 18692 ft 363 kts 182°
2026-04-24 08:21 41.31867 -87.72545 19109 ft 367 kts 182°
2026-04-24 08:22 41.29305 -87.72550 19537 ft 370 kts 182°
2026-04-24 08:22 41.26724 -87.72554 19971 ft 372 kts 182°
2026-04-24 08:22 41.24127 -87.72560 20412 ft 375 kts 182°
2026-04-24 08:22 41.21511 -87.72570 20862 ft 377 kts 182°
2026-04-24 08:23 41.18885 -87.72411 21317 ft 380 kts 176°
2026-04-24 08:23 41.16288 -87.72064 21772 ft 381 kts 176°
2026-04-24 08:23 41.13644 -87.71704 22242 ft 382 kts 176°
2026-04-24 08:23 41.10993 -87.71341 22724 ft 383 kts 176°
2026-04-24 08:24 41.08336 -87.70978 23197 ft 384 kts 177°
2026-04-24 08:24 41.05677 -87.70618 23633 ft 385 kts 176°
2026-04-24 08:24 41.03015 -87.70257 24042 ft 385 kts 176°
2026-04-24 08:24 41.00353 -87.69896 24456 ft 384 kts 176°
2026-04-24 08:25 40.97696 -87.69539 24875 ft 384 kts 176°
2026-04-24 08:25 40.95076 -87.69189 25301 ft 383 kts 177°
2026-04-24 08:25 40.92427 -87.68836 25734 ft 382 kts 177°
2026-04-24 08:25 40.89788 -87.68482 26174 ft 381 kts 177°
2026-04-24 08:26 40.87145 -87.68129 26467 ft 384 kts 177°
2026-04-24 08:26 40.84474 -87.67774 26718 ft 388 kts 177°
2026-04-24 08:26 40.81774 -87.67416 26971 ft 392 kts 177°
2026-04-24 08:26 40.79050 -87.67051 27229 ft 395 kts 177°
2026-04-24 08:27 40.76304 -87.66681 27492 ft 398 kts 176°
2026-04-24 08:27 40.73536 -87.66309 27748 ft 402 kts 177°
2026-04-24 08:27 40.70785 -87.65941 28013 ft 404 kts 177°
2026-04-24 08:27 40.67976 -87.65564 28279 ft 407 kts 177°
2026-04-24 08:28 40.65151 -87.65185 28544 ft 409 kts 177°
2026-04-24 08:28 40.62308 -87.64804 28820 ft 412 kts 177°
2026-04-24 08:28 40.59449 -87.64425 29094 ft 414 kts 177°
2026-04-24 08:28 40.56575 -87.64048 29368 ft 416 kts 177°
2026-04-24 08:29 40.53687 -87.63670 29652 ft 418 kts 177°
2026-04-24 08:29 40.50788 -87.63288 29924 ft 420 kts 177°
2026-04-24 08:29 40.47878 -87.62902 30159 ft 421 kts 177°
2026-04-24 08:29 40.44960 -87.62514 30400 ft 423 kts 177°
2026-04-24 08:30 40.42069 -87.62129 30633 ft 424 kts 177°
2026-04-24 08:30 40.39130 -87.61737 30875 ft 425 kts 177°
2026-04-24 08:30 40.36184 -87.61345 31131 ft 426 kts 176°
2026-04-24 08:30 40.33233 -87.60885 31365 ft 428 kts 171°
2026-04-24 08:31 40.30354 -87.59833 31622 ft 432 kts 160°
2026-04-24 08:31 40.27622 -87.58179 31874 ft 434 kts 156°
2026-04-24 08:31 40.24909 -87.56448 32132 ft 434 kts 156°
2026-04-24 08:31 40.22192 -87.54722 32390 ft 434 kts 156°
2026-04-24 08:32 40.19469 -87.52999 32649 ft 434 kts 156°
2026-04-24 08:32 40.16785 -87.51300 32918 ft 434 kts 156°
2026-04-24 08:32 40.14068 -87.49580 33172 ft 434 kts 155°
2026-04-24 08:32 40.11351 -87.47860 33436 ft 434 kts 155°
2026-04-24 08:33 40.08634 -87.46140 33709 ft 433 kts 155°
2026-04-24 08:33 40.05927 -87.44428 33960 ft 432 kts 155°
2026-04-24 08:33 40.03222 -87.42720 34194 ft 431 kts 155°
2026-04-24 08:33 40.00525 -87.41023 34431 ft 430 kts 155°
2026-04-24 08:34 39.97835 -87.39325 34669 ft 429 kts 155°
2026-04-24 08:34 39.95166 -87.37583 34817 ft 430 kts 154°
2026-04-24 08:34 39.92528 -87.35808 34861 ft 435 kts 154°
2026-04-24 08:35 39.87105 -87.32109 34875 ft 445 kts 154°
2026-04-24 08:35 39.81536 -87.28340 34868 ft 457 kts 154°
2026-04-24 08:36 39.75821 -87.24513 34870 ft 467 kts 154°
2026-04-24 08:36 39.69979 -87.20609 34879 ft 475 kts 154°
2026-04-24 08:37 39.64097 -87.16676 34874 ft 476 kts 154°
2026-04-24 08:37 39.58244 -87.12782 34877 ft 476 kts 154°
2026-04-24 08:38 39.52342 -87.08874 34875 ft 476 kts 154°
2026-04-24 08:38 39.46449 -87.04963 34878 ft 476 kts 154°
2026-04-24 08:39 39.40556 -87.01048 34880 ft 476 kts 154°
2026-04-24 08:39 39.34696 -86.97171 34890 ft 476 kts 154°
2026-04-24 08:40 39.28795 -86.93282 34903 ft 475 kts 155°
2026-04-24 08:40 39.22908 -86.89414 34916 ft 474 kts 155°
2026-04-24 08:41 39.17033 -86.85558 34929 ft 473 kts 155°
2026-04-24 08:41 39.11231 -86.81676 34925 ft 473 kts 154°
2026-04-24 08:42 39.05425 -86.77692 34922 ft 473 kts 154°
2026-04-24 08:42 38.99622 -86.73724 34918 ft 472 kts 154°
2026-04-24 08:43 38.93808 -86.69783 34922 ft 472 kts 154°
2026-04-24 08:43 38.87986 -86.65864 34918 ft 472 kts 154°
2026-04-24 08:44 38.82204 -86.61978 34909 ft 472 kts 154°
2026-04-24 08:44 38.76385 -86.58056 34913 ft 472 kts 154°
2026-04-24 08:45 38.70570 -86.54144 34929 ft 472 kts 155°
2026-04-24 08:45 38.64765 -86.50250 34949 ft 470 kts 155°
2026-04-24 08:46 38.59010 -86.46401 34940 ft 470 kts 155°
2026-04-24 08:46 38.53220 -86.42540 34943 ft 469 kts 155°
2026-04-24 08:47 38.47431 -86.38682 34945 ft 469 kts 155°
2026-04-24 08:47 38.42625 -86.35483 34941 ft 469 kts 155°
2026-04-24 08:48 38.35902 -86.31011 34941 ft 469 kts 155°
2026-04-24 08:48 38.30119 -86.27169 34942 ft 469 kts 155°
2026-04-24 08:49 38.24329 -86.23344 34940 ft 469 kts 155°
2026-04-24 08:49 38.19514 -86.20167 34942 ft 469 kts 155°
2026-04-24 08:50 38.13725 -86.16342 34943 ft 469 kts 155°
2026-04-24 08:50 38.07005 -86.11913 34946 ft 468 kts 155°
2026-04-24 08:51 38.02155 -86.08729 34945 ft 468 kts 155°
2026-04-24 08:51 37.96413 -86.04961 34947 ft 468 kts 155°
2026-04-24 08:52 37.90635 -86.01178 34947 ft 468 kts 155°
2026-04-24 08:52 37.84855 -85.97402 34941 ft 467 kts 155°
2026-04-24 08:53 37.79075 -85.93628 34967 ft 467 kts 155°
2026-04-24 08:53 37.73342 -85.89886 34970 ft 467 kts 155°
2026-04-24 08:54 37.67558 -85.86129 34971 ft 467 kts 155°
2026-04-24 08:54 37.61780 -85.82380 34965 ft 467 kts 155°
2026-04-24 08:55 37.56004 -85.78636 34964 ft 467 kts 155°
2026-04-24 08:55 37.50267 -85.74918 34965 ft 467 kts 155°
2026-04-24 08:56 37.44492 -85.71186 34969 ft 466 kts 155°
2026-04-24 08:56 37.38713 -85.67466 34957 ft 467 kts 155°
2026-04-24 08:57 37.32930 -85.63749 34969 ft 467 kts 155°
2026-04-24 08:57 37.27151 -85.60030 34973 ft 467 kts 155°
2026-04-24 08:58 37.21409 -85.56340 34979 ft 467 kts 155°
2026-04-24 08:58 37.15621 -85.52639 34979 ft 467 kts 155°
2026-04-24 08:59 37.09834 -85.48952 34978 ft 467 kts 155°
2026-04-24 08:59 37.04046 -85.45258 34986 ft 467 kts 155°
2026-04-24 09:00 36.98260 -85.41567 34984 ft 467 kts 156°
2026-04-24 09:00 36.92512 -85.37915 34999 ft 467 kts 156°
2026-04-24 09:01 36.86728 -85.34241 34997 ft 466 kts 156°
2026-04-24 09:01 36.80948 -85.30569 35009 ft 466 kts 156°
2026-04-24 09:02 36.75165 -85.26913 35024 ft 466 kts 156°
2026-04-24 09:02 36.69417 -85.23292 35024 ft 466 kts 156°
2026-04-24 09:03 36.63632 -85.19650 35019 ft 466 kts 156°
2026-04-24 09:03 36.60657 -85.18111 35015 ft 461 kts 167°
2026-04-24 09:03 36.57544 -85.17211 35020 ft 459 kts 171°
2026-04-24 09:04 36.51288 -85.15607 35020 ft 459 kts 171°
2026-04-24 09:04 36.45029 -85.13992 35022 ft 459 kts 171°
2026-04-24 09:05 36.38814 -85.12372 35015 ft 460 kts 171°
2026-04-24 09:05 36.32551 -85.10750 35021 ft 460 kts 171°
2026-04-24 09:06 36.26289 -85.09139 35031 ft 460 kts 171°
2026-04-24 09:06 36.20025 -85.07533 35036 ft 460 kts 171°
2026-04-24 09:07 36.13803 -85.05934 35036 ft 460 kts 171°
2026-04-24 09:07 36.04401 -85.03522 35048 ft 460 kts 171°
2026-04-24 09:08 35.98135 -85.01921 35050 ft 460 kts 171°
2026-04-24 09:08 35.91867 -85.00320 35053 ft 460 kts 171°
2026-04-24 09:09 35.85638 -84.98726 35026 ft 460 kts 171°
2026-04-24 09:09 35.79370 -84.97135 35025 ft 460 kts 171°
2026-04-24 09:10 35.73104 -84.95550 35025 ft 460 kts 171°
2026-04-24 09:10 35.66826 -84.93956 35027 ft 460 kts 171°
2026-04-24 09:11 35.60552 -84.92362 35021 ft 460 kts 171°
2026-04-24 09:11 35.54319 -84.90780 35028 ft 461 kts 171°
2026-04-24 09:12 35.48040 -84.89191 35025 ft 461 kts 171°
2026-04-24 09:12 35.41763 -84.87604 35025 ft 461 kts 171°
2026-04-24 09:13 35.35478 -84.86016 35014 ft 461 kts 171°
2026-04-24 09:13 35.29239 -84.84442 35019 ft 461 kts 171°
2026-04-24 09:14 35.22949 -84.82861 35022 ft 461 kts 171°
2026-04-24 09:14 35.16653 -84.81279 35022 ft 462 kts 171°
2026-04-24 09:15 35.10362 -84.79699 35022 ft 462 kts 171°
2026-04-24 09:15 35.04066 -84.78125 35027 ft 462 kts 171°
2026-04-24 09:16 34.97813 -84.76566 35042 ft 462 kts 171°
2026-04-24 09:16 34.91515 -84.74992 35050 ft 462 kts 171°
2026-04-24 09:17 34.85218 -84.73423 35048 ft 462 kts 170°
2026-04-24 09:17 34.78912 -84.71854 35051 ft 462 kts 170°
2026-04-24 09:18 34.72649 -84.70297 35053 ft 463 kts 171°
2026-04-24 09:18 34.66340 -84.68732 35051 ft 463 kts 171°
2026-04-24 09:19 34.60028 -84.67168 35042 ft 463 kts 170°
2026-04-24 09:19 34.53724 -84.65586 35038 ft 463 kts 170°
2026-04-24 09:20 34.46402 -84.63661 35047 ft 463 kts 169°
2026-04-24 09:20 34.41163 -84.62272 35068 ft 463 kts 169°
2026-04-24 09:21 34.34864 -84.60612 35060 ft 463 kts 169°
2026-04-24 09:21 34.28561 -84.58969 35062 ft 463 kts 170°
2026-04-24 09:22 34.22297 -84.57346 35066 ft 463 kts 170°
2026-04-24 09:22 34.15999 -84.55718 35067 ft 463 kts 170°
2026-04-24 09:23 34.09700 -84.54088 35080 ft 463 kts 170°
2026-04-24 09:23 34.03401 -84.52458 35075 ft 463 kts 170°
2026-04-24 09:24 33.97092 -84.50944 35043 ft 462 kts 171°
2026-04-24 09:24 33.90810 -84.49601 35043 ft 462 kts 172°
2026-04-24 09:25 33.84481 -84.48263 35069 ft 462 kts 172°
2026-04-24 09:25 33.78162 -84.46883 35065 ft 462 kts 171°
2026-04-24 09:26 33.71848 -84.45479 35067 ft 462 kts 171°
2026-04-24 09:26 33.65530 -84.44083 35068 ft 462 kts 171°
2026-04-24 09:27 33.59531 -84.41488 35067 ft 465 kts 155°
2026-04-24 09:27 33.53739 -84.38009 35057 ft 466 kts 155°
2026-04-24 09:28 33.47936 -84.34554 35087 ft 466 kts 155°
2026-04-24 09:28 33.42129 -84.31095 35088 ft 466 kts 155°
2026-04-24 09:29 33.36361 -84.27654 35089 ft 466 kts 155°
2026-04-24 09:29 33.30551 -84.24200 35090 ft 466 kts 155°
2026-04-24 09:30 33.23751 -84.20174 35072 ft 466 kts 155°
2026-04-24 09:30 33.18919 -84.17313 35062 ft 467 kts 155°
2026-04-24 09:31 33.13103 -84.13869 35051 ft 467 kts 155°
2026-04-24 09:31 33.07281 -84.10438 35047 ft 466 kts 155°
2026-04-24 09:32 33.01507 -84.07030 35067 ft 466 kts 155°
2026-04-24 09:32 32.95694 -84.03596 35063 ft 467 kts 155°
2026-04-24 09:33 32.89876 -84.00170 35059 ft 467 kts 155°
2026-04-24 09:33 32.84055 -83.96747 35054 ft 467 kts 155°
2026-04-24 09:34 32.78275 -83.93352 35045 ft 466 kts 155°
2026-04-24 09:34 32.72450 -83.89949 35039 ft 467 kts 155°
2026-04-24 09:35 32.66622 -83.86551 35054 ft 467 kts 155°
2026-04-24 09:35 32.60790 -83.83149 35064 ft 467 kts 155°
2026-04-24 09:36 32.54959 -83.79746 35068 ft 467 kts 155°
2026-04-24 09:36 32.49164 -83.76376 35070 ft 467 kts 155°
2026-04-24 09:37 32.43330 -83.72978 35064 ft 467 kts 155°
2026-04-24 09:37 32.37496 -83.69577 35061 ft 467 kts 155°
2026-04-24 09:38 32.31654 -83.66197 35046 ft 467 kts 155°
2026-04-24 09:38 32.25852 -83.62843 35051 ft 467 kts 155°
2026-04-24 09:39 32.20009 -83.59464 35055 ft 467 kts 155°
2026-04-24 09:39 32.14165 -83.56091 35050 ft 467 kts 155°
2026-04-24 09:40 32.08326 -83.52720 35057 ft 467 kts 155°
2026-04-24 09:40 32.02522 -83.49377 35057 ft 467 kts 155°
2026-04-24 09:41 31.96676 -83.46018 35054 ft 467 kts 155°
2026-04-24 09:41 31.90830 -83.42666 35054 ft 467 kts 155°
2026-04-24 09:42 31.84983 -83.39314 35053 ft 467 kts 155°
2026-04-24 09:42 31.79132 -83.35970 35059 ft 467 kts 155°
2026-04-24 09:43 31.73323 -83.32644 35063 ft 467 kts 155°
2026-04-24 09:43 31.67477 -83.29314 35060 ft 467 kts 155°
2026-04-24 09:44 31.61627 -83.25991 35031 ft 467 kts 155°
2026-04-24 09:44 31.55764 -83.22699 35034 ft 467 kts 155°
2026-04-24 09:45 31.49927 -83.19444 35044 ft 468 kts 155°
2026-04-24 09:45 31.44046 -83.16159 35049 ft 468 kts 155°
2026-04-24 09:46 31.38160 -83.12868 35053 ft 469 kts 155°
2026-04-24 09:46 31.32273 -83.09581 35047 ft 469 kts 155°
2026-04-24 09:47 31.26378 -83.06296 35045 ft 469 kts 155°
2026-04-24 09:47 31.20515 -83.03038 35045 ft 470 kts 155°
2026-04-24 09:48 31.14610 -82.99767 35051 ft 470 kts 155°
2026-04-24 09:48 31.08703 -82.96485 35058 ft 470 kts 155°
2026-04-24 09:49 31.02799 -82.93211 35052 ft 470 kts 155°
2026-04-24 09:49 30.96883 -82.89938 35052 ft 471 kts 155°
2026-04-24 09:50 30.90996 -82.86691 35043 ft 471 kts 155°
2026-04-24 09:50 30.88172 -82.84761 35046 ft 472 kts 143°
2026-04-24 09:50 30.85587 -82.82402 35061 ft 472 kts 142°
2026-04-24 09:51 30.80401 -82.77710 35061 ft 472 kts 142°
2026-04-24 09:51 30.75197 -82.73038 34869 ft 472 kts 142°
2026-04-24 09:52 30.72633 -82.70735 34516 ft 473 kts 142°
2026-04-24 09:52 30.70025 -82.68392 34169 ft 475 kts 142°
2026-04-24 09:52 30.67412 -82.66042 33783 ft 475 kts 142°
2026-04-24 09:52 30.64796 -82.63687 33389 ft 476 kts 142°
2026-04-24 09:53 30.62178 -82.61326 32999 ft 477 kts 142°
2026-04-24 09:53 30.59555 -82.58961 32621 ft 478 kts 142°
2026-04-24 09:53 30.56927 -82.56598 32232 ft 479 kts 142°
2026-04-24 09:53 30.54288 -82.54231 31853 ft 479 kts 142°
2026-04-24 09:54 30.51645 -82.51865 31486 ft 480 kts 142°
2026-04-24 09:54 30.49037 -82.49527 31126 ft 481 kts 142°
2026-04-24 09:54 30.46386 -82.47150 30766 ft 482 kts 142°
2026-04-24 09:54 30.43730 -82.44773 30411 ft 483 kts 142°
2026-04-24 09:55 30.41063 -82.42393 30046 ft 484 kts 142°
2026-04-24 09:55 30.38393 -82.40014 29627 ft 485 kts 142°
2026-04-24 09:55 30.35721 -82.37636 29223 ft 484 kts 142°
2026-04-24 09:55 30.33052 -82.35255 28820 ft 485 kts 142°
2026-04-24 09:56 30.30378 -82.32871 28423 ft 486 kts 142°
2026-04-24 09:56 30.27700 -82.30483 28033 ft 487 kts 142°
2026-04-24 09:56 30.25014 -82.28088 27647 ft 488 kts 142°
2026-04-24 09:56 30.22360 -82.25723 27273 ft 489 kts 142°
2026-04-24 09:57 30.19480 -82.23641 26886 ft 489 kts 155°
2026-04-24 09:57 30.16307 -82.22224 26519 ft 490 kts 164°
2026-04-24 09:57 30.12972 -82.21356 26149 ft 492 kts 172°
2026-04-24 09:57 30.09578 -82.20869 25788 ft 493 kts 175°
2026-04-24 09:58 30.06158 -82.20536 25430 ft 494 kts 176°
2026-04-24 09:58 30.02729 -82.20181 25077 ft 495 kts 175°
2026-04-24 09:58 29.99304 -82.19714 24725 ft 496 kts 173°
2026-04-24 09:58 29.95933 -82.19126 24387 ft 498 kts 171°
2026-04-24 09:59 29.92518 -82.18430 24114 ft 499 kts 170°
2026-04-24 09:59 29.89104 -82.17681 24047 ft 499 kts 170°
2026-04-24 09:59 29.85693 -82.16920 24071 ft 501 kts 170°
2026-04-24 09:59 29.82269 -82.16177 24071 ft 501 kts 171°
2026-04-24 10:00 29.78896 -82.15474 24065 ft 481 kts 171°
2026-04-24 10:00 29.75673 -82.14827 24071 ft 460 kts 171°
2026-04-24 10:00 29.72583 -82.14220 24071 ft 442 kts 172°
2026-04-24 10:00 29.69618 -82.13646 24072 ft 435 kts 172°
2026-04-24 10:01 29.66640 -82.13071 24074 ft 433 kts 172°
2026-04-24 10:01 29.63668 -82.12496 24072 ft 433 kts 172°
2026-04-24 10:01 29.60699 -82.11915 24072 ft 433 kts 171°
2026-04-24 10:01 29.57734 -82.11327 24069 ft 433 kts 172°
2026-04-24 10:02 29.54766 -82.10735 24071 ft 432 kts 172°
2026-04-24 10:02 29.51801 -82.10141 24071 ft 432 kts 172°
2026-04-24 10:02 29.48838 -82.09549 24069 ft 432 kts 172°
2026-04-24 10:02 29.45875 -82.08959 24065 ft 432 kts 172°
2026-04-24 10:03 29.42910 -82.08374 24064 ft 432 kts 172°
2026-04-24 10:03 29.39982 -82.07800 24060 ft 432 kts 172°
2026-04-24 10:03 29.37016 -82.07220 24062 ft 432 kts 172°
2026-04-24 10:03 29.34052 -82.06638 24061 ft 432 kts 172°
2026-04-24 10:04 29.31100 -82.05963 24061 ft 433 kts 163°
2026-04-24 10:04 29.28388 -82.04464 24055 ft 435 kts 149°
2026-04-24 10:04 29.25803 -82.02664 24063 ft 435 kts 151°
2026-04-24 10:04 29.23167 -82.00977 24042 ft 433 kts 153°
2026-04-24 10:05 29.20511 -81.99359 23612 ft 432 kts 154°
2026-04-24 10:05 29.17853 -81.97773 22831 ft 427 kts 154°
2026-04-24 10:05 29.15310 -81.96247 22087 ft 411 kts 154°
2026-04-24 10:05 29.12810 -81.94725 21357 ft 403 kts 153°
2026-04-24 10:06 29.10360 -81.93206 20629 ft 398 kts 153°
2026-04-24 10:06 29.05814 -81.89800 19251 ft 389 kts 135°
2026-04-24 10:06 29.03933 -81.87543 18585 ft 394 kts 136°
2026-04-24 10:07 29.01950 -81.85372 17851 ft 397 kts 139°
2026-04-24 10:07 28.99898 -81.83249 17088 ft 399 kts 140°
2026-04-24 10:07 28.97868 -81.81073 16356 ft 402 kts 136°
2026-04-24 10:07 28.96006 -81.78739 15640 ft 404 kts 131°
2026-04-24 10:08 28.94242 -81.76235 14941 ft 403 kts 129°
2026-04-24 10:08 28.92605 -81.73727 14239 ft 385 kts 127°
2026-04-24 10:08 28.91070 -81.71310 13538 ft 368 kts 127°
2026-04-24 10:08 28.89592 -81.68992 12794 ft 355 kts 127°
2026-04-24 10:09 28.88136 -81.66759 12060 ft 347 kts 128°
2026-04-24 10:09 28.86686 -81.64579 11337 ft 342 kts 128°
2026-04-24 10:09 28.85253 -81.62452 10640 ft 333 kts 128°
2026-04-24 10:09 28.83857 -81.60394 9958 ft 323 kts 128°
2026-04-24 10:10 28.82518 -81.58425 9215 ft 314 kts 128°
2026-04-24 10:10 28.81195 -81.56482 8473 ft 307 kts 128°
2026-04-24 10:10 28.79903 -81.54583 7749 ft 299 kts 127°
2026-04-24 10:10 28.78669 -81.52714 7135 ft 290 kts 124°
2026-04-24 10:11 28.77582 -81.50875 6879 ft 268 kts 122°
2026-04-24 10:11 28.76621 -81.49158 6673 ft 246 kts 121°
2026-04-24 10:11 28.75737 -81.47553 6523 ft 236 kts 121°
2026-04-24 10:11 28.74871 -81.45983 6321 ft 233 kts 121°
2026-04-24 10:12 28.74019 -81.44448 6127 ft 232 kts 121°
2026-04-24 10:12 28.73011 -81.43030 6012 ft 232 kts 139°
2026-04-24 10:12 28.71743 -81.41894 6004 ft 232 kts 141°
2026-04-24 10:12 28.70474 -81.40751 6004 ft 233 kts 140°
2026-04-24 10:13 28.69204 -81.39604 6003 ft 233 kts 140°
2026-04-24 10:13 28.67932 -81.38453 5792 ft 235 kts 140°
2026-04-24 10:13 28.66654 -81.37298 5414 ft 234 kts 140°
2026-04-24 10:13 28.65384 -81.36151 5044 ft 232 kts 140°
2026-04-24 10:14 28.64123 -81.35013 4662 ft 231 kts 141°
2026-04-24 10:14 28.62867 -81.33881 4291 ft 230 kts 141°
2026-04-24 10:14 28.61617 -81.32758 3920 ft 228 kts 141°
2026-04-24 10:14 28.60393 -81.31656 3556 ft 227 kts 142°
2026-04-24 10:15 28.59156 -81.30543 3178 ft 226 kts 142°
2026-04-24 10:15 28.57929 -81.29441 2810 ft 223 kts 143°
2026-04-24 10:15 28.56586 -81.28615 2391 ft 226 kts 162°
2026-04-24 10:15 28.55030 -81.28347 2031 ft 224 kts 178°
2026-04-24 10:16 28.53520 -81.28338 1859 ft 212 kts 179°
2026-04-24 10:16 28.52066 -81.28334 1612 ft 205 kts 179°
2026-04-24 10:16 28.50686 -81.28323 1350 ft 192 kts 179°
2026-04-24 10:16 28.49424 -81.28310 1127 ft 176 kts 179°
2026-04-24 10:17 28.48255 -81.28299 910 ft 159 kts 179°
2026-04-24 10:17 28.47196 -81.28288 692 ft 147 kts 179°
2026-04-24 10:17 28.46186 -81.28274 491 ft 144 kts 178°
2026-04-24 10:17 28.45186 -81.28247 311 ft 144 kts 180°
2026-04-24 10:18 28.44189 -81.28251 139 ft 143 kts 179°
2026-04-24 10:18 28.43285 -81.28246 101 ft 104 kts 179°
2026-04-24 10:18 28.42746 -81.28242 104 ft 52 kts 180°
2026-04-24 10:18 28.42547 -81.28311 108 ft 14 kts 232°
2026-04-24 10:19 28.42546 -81.28368 107 ft 1 kts 246°
2026-04-24 10:19 28.42535 -81.28377 107 ft 2 kts 220°
2026-04-24 10:19 28.42499 -81.28435 105 ft 17 kts 246°
2026-04-24 10:19 28.42455 -81.28572 106 ft 18 kts 250°
2026-04-24 10:20 28.42413 -81.28712 103 ft 19 kts 251°
2026-04-24 10:20 28.42373 -81.28840 108 ft 17 kts 250°
2026-04-24 10:20 28.42330 -81.28975 108 ft 19 kts 250°
2026-04-24 10:20 28.42293 -81.29116 108 ft 18 kts 261°
2026-04-24 10:21 28.42282 -81.29262 105 ft 20 kts 268°
2026-04-24 10:21 28.42285 -81.29414 104 ft 20 kts 270°
2026-04-24 10:21 28.42282 -81.29581 99 ft 22 kts 269°
2026-04-24 10:21 28.42302 -81.29691 102 ft 9 kts 314°
2026-04-24 10:22 28.42352 -81.29696 101 ft 9 kts
2026-04-24 10:22 28.42436 -81.29700 102 ft 13 kts 352°
2026-04-24 10:22 28.42522 -81.29711 102 ft 12 kts 356°
2026-04-24 10:22 28.42594 -81.29744 100 ft 11 kts 292°
2026-04-24 10:23 28.42596 -81.29820 103 ft 8 kts 265°
2026-04-24 10:23 28.42591 -81.29881 103 ft 7 kts 239°
2026-04-24 10:23 28.42578 -81.29929 103 ft 6 kts 274°
2026-04-24 10:23 28.42581 -81.29968 103 ft 0 kts 275°
2026-04-24 10:24 28.42581 -81.29979 103 ft 4 kts 275°
2026-04-24 10:24 28.42582 -81.29986 103 ft 0 kts 274°